Weather History for Ellensburg, WA

Change the Weather History Date:

Wednesday, January 30, 2013

  Actual Average (KYKM) Record (KYKM)
Temperature  
Mean Temperature 48 °F 34 °F  
Max Temperature 52 °F 42 °F 68 °F (1971)
Min Temperature 43 °F 25 °F -15 °F (1950)
Degree Days  
Heating Degree Days 18 32  
Month to date heating degree days 1026  
Since 1 July heating degree days 3689  
Cooling Degree Days 0 0  
Month to date cooling degree days 0  
Year to date cooling degree days 0  
Moisture  
Dew Point 35 °F    
Average Humidity 64    
Maximum Humidity 74    
Minimum Humidity 54    
Precipitation  
Precipitation 0.00 in 0.03 in 0.45 in (2003)
Month to date precipitation 1.11  
Year to date precipitation 1.11  
Snow  
Snow 0.00 in 0.10 in 1.10 in (2000)
Month to date snowfall 5.2  
Year to date snowfall 5.2  
Since 1 July snowfall 18.2  
Snow Depth -    
Sea Level Pressure  
Sea Level Pressure 30.21 in    
Wind  
Wind Speed 24 mph (NW)    
Max Wind Speed 34 mph    
Max Gust Speed 45 mph    
Visibility 10 miles    
Events      
T = Trace of Precipitation, MM = Missing Value Source: NWS Daily Summary

Daily Weather History Graph

Daily Weather History Graph

Search for Another Location

Airport:

Trip Planner

Search our weather history database for the weather conditions in past years. The results will help you decide how hot, cold, wet, or windy it might be!

Date:

Astronomy

Jan. 30, 2013 Rise Set
Actual Time 7:29 AM PST 5:02 PM PST
Civil Twilight 6:56 AM PST 5:35 PM PST
Nautical Twilight 6:19 AM PST 6:11 PM PST
Astronomical Twilight 5:44 AM PST 6:47 PM PST
Moon 9:26 PM PST (1/30) 8:41 AM PST (1/30)
Length of Visible Light 10h 38m
Length of Day
9h 33m
Waning Gibbous, 87% of the Moon is Illuminated
Jan 30
Waning Gibbous
Feb 3
Last Quarter
Feb 9
New
Feb 17
First Quarter
Feb 25
Full

Hourly Weather History & Observations

Time (PST) Temp. Windchill Dew Point Humidity Pressure Visibility Wind Dir Wind Speed Gust Speed Precip Events Conditions
12:53 AM 44.1 °F 35.0 °F 30.9 °F 60% 30.18 in 10.0 mi WNW 24.2 mph 32.2 mph N/A   Clear
1:53 AM 44.1 °F 37.7 °F 32.0 °F 63% 30.18 in 10.0 mi WNW 12.7 mph - N/A   Clear
2:53 AM 44.1 °F 35.7 °F 33.1 °F 65% 30.18 in 10.0 mi NW 20.7 mph - N/A   Clear
3:53 AM 44.1 °F 35.0 °F 33.1 °F 65% 30.16 in 10.0 mi NW 24.2 mph 31.1 mph N/A   Clear
4:53 AM 45.0 °F 35.8 °F 33.1 °F 63% 30.16 in 10.0 mi NW 26.5 mph 36.8 mph N/A   Clear
5:53 AM 45.0 °F 34.7 °F 34.0 °F 65% 30.15 in 10.0 mi NW 33.4 mph 40.3 mph N/A   Clear
6:53 AM 46.0 °F 36.1 °F 34.0 °F 63% 30.14 in 10.0 mi NW 34.5 mph 43.7 mph N/A   Clear
7:53 AM 46.0 °F 36.2 °F 34.0 °F 63% 30.15 in 10.0 mi WNW 33.4 mph 44.9 mph N/A   Clear
8:53 AM 46.9 °F - 35.1 °F 63% 30.17 in 10.0 mi NW 31.1 mph 42.6 mph N/A   Clear
9:53 AM 48.9 °F - 35.1 °F 59% 30.20 in 10.0 mi NW 26.5 mph 36.8 mph N/A   Clear
10:53 AM 50.0 °F - 36.0 °F 59% 30.20 in 10.0 mi WNW 27.6 mph 36.8 mph N/A   Clear
11:53 AM 51.1 °F - 36.0 °F 56% 30.21 in 10.0 mi WNW 20.7 mph 31.1 mph N/A   Clear
12:53 PM 52.0 °F - 36.0 °F 54% 30.21 in 10.0 mi WNW 31.1 mph 39.1 mph N/A   Clear
1:53 PM 51.1 °F - 36.0 °F 56% 30.21 in 10.0 mi WNW 28.8 mph 38.0 mph N/A   Clear
2:53 PM 50.0 °F - 36.0 °F 59% 30.21 in 10.0 mi WNW 32.2 mph 40.3 mph N/A   Clear
3:53 PM 50.0 °F - 36.0 °F 59% 30.23 in 10.0 mi WNW 25.3 mph 31.1 mph N/A   Clear
4:53 PM 46.0 °F 40.2 °F 35.1 °F 66% 30.25 in 10.0 mi NW 12.7 mph - N/A   Clear
5:53 PM 44.1 °F 37.1 °F 35.1 °F 71% 30.27 in 10.0 mi NW 15.0 mph - N/A   Clear
6:53 PM 43.0 °F 35.4 °F 35.1 °F 74% 30.26 in 10.0 mi WNW 16.1 mph - N/A   Clear
7:53 PM 43.0 °F 34.5 °F 35.1 °F 74% 30.27 in 10.0 mi WNW 19.6 mph - N/A   Clear
8:53 PM 45.0 °F 36.9 °F 35.1 °F 68% 30.27 in 10.0 mi WNW 20.7 mph - N/A   Clear
9:53 PM 45.0 °F 37.6 °F 36.0 °F 71% 30.27 in 10.0 mi WNW 17.3 mph - N/A   Mostly Cloudy
10:53 PM 45.0 °F 38.2 °F 35.1 °F 68% 30.27 in 10.0 mi NW 15.0 mph - N/A   Scattered Clouds
11:53 PM 45.0 °F 36.9 °F 35.1 °F 68% 30.26 in 10.0 mi NW 20.7 mph - N/A   Mostly Cloudy